Regional Weather Roundup
Issued by NWS Northern Indiana

Home | Current Version | Previous Version | Graphics & Text | Print | Product List | Glossary On
Versions: 1 2 3 4 5 6 7 8 9 10 11 12 13 14 15 16 17 18 19 20 21 22 23 24 25 26 27 28 29 30 31 32 33 34 35 36 37 38 39 40 41 42 43 44 45 46 47 48 49 50
000
ASUS43 KIWX 291710
RWRIWX

KIWX WEATHER ROUNDUP
NATIONAL WEATHER SERVICE NORTHERN INDIANA
100 PM EDT MON MAY 29 2017

NOTE: "FAIR" INDICATES FEW OR NO CLOUDS BELOW 12,000 FEET WITH NO
SIGNIFICANT WEATHER AND/OR OBSTRUCTIONS TO VISIBILITY.

* THESE STATIONS ARE NOT UNDER NWS QUALITY CONTROL. THEY ALSO MAY NOT
  REPORT WEATHER SUCH AS PRECIPITATION OR FOG.

INZ001>027-291800-
NORTHERN INDIANA

CITY           SKY/WX    TMP DP  RH WIND       PRES   REMARKS
GARY*          MOSUNNY   77  41  27 W10       29.84S
VALPARAISO     MOSUNNY   78  47  33 W21G28    29.85R
MICHIGAN CITY* PTSUNNY   72  46  40 W9G22     29.85R
LAPORTE*       MOSUNNY   75  46  35 W18G28    29.85S
KNOX*          SUNNY     77  36  22 W20G25    29.85R
SOUTH BEND     MOSUNNY   77  47  34 W18G26    29.84R
ELKHART*       SUNNY     77  45  31 W14G20    29.83S
GOSHEN         SUNNY     75  50  41 W13G20    29.84R
MONTICELLO*    SUNNY     78  44  29 SW14G21   29.88R
LOGANSPORT*    SUNNY     77  46  33 W16       29.90R
ROCHESTER*     SUNNY     79  41  25 W13G18    29.87R
WARSAW*        SUNNY     75  52  43 W12       29.86R
ANGOLA*        SUNNY     75  50  41 W10       29.84R
FORT WAYNE     MOSUNNY   77  55  46 W18       29.88R
HUNTINGTON*    SUNNY    N/A N/A N/A W12G17    29.88R
PERU/GRISSOM   SUNNY     77  51  41 W16G23    29.89R
MARION*        SUNNY     75  52  43 W14       29.90S

$$
INZ028>050-291800-
CENTRAL INDIANA

CITY           SKY/WX    TMP DP  RH WIND       PRES   REMARKS
LAFAYETTE      SUNNY     77  52  41 W12       29.89R
KOKOMO*        SUNNY     77  52  41 W16       29.91R
MUNCIE*        SUNNY     79  48  33 W15       29.90R
INDIANAPOLIS   MOSUNNY   77  55  46 SW9       29.92R

$$
MIZ043>046-050>051-056>058-064>065-071>073-077>080-291800-
SOUTHWEST LOWER MICHIGAN

CITY           SKY/WX    TMP DP  RH WIND       PRES   REMARKS
BATTLE CREEK   LGT RAIN  76  43  30 W20G29    29.81S
BENTON HARBOR  PTSUNNY   71  46  40 SW15      29.83R
COLDWATER*     MOSUNNY   76  46  34 W14G24    29.83R
HILLSDALE*     SUNNY     73  50  43 W12G21    29.83R
HOLLAND        MOSUNNY   70  47  43 W13       29.81S
GRAND RAPIDS   PTSUNNY   71  45  39 W18G24    29.79S
KALAMAZOO      SUNNY     76  42  29 W16G23    29.81S
STURGIS*       SUNNY     76  51  42 W10G16    29.83R
THREE RIVERS*  FAIR      76  44  32 W12       29.83R

$$
OHZ001>008-015>018-024>025-291800-
NORTHWEST OHIO

CITY           SKY/WX    TMP DP  RH WIND       PRES   REMARKS
WAUSEON*       FAIR      79  55  44 SW16      29.83S
DEFIANCE       SUNNY     75  54  47 SW14G21   29.84S
FINDLAY        SUNNY     78  53  41 SW18G25   29.85S
TOLEDO EXPRESS SUNNY     77  54  44 W16G24    29.83R
TOLEDO METCALF SUNNY     78  57  48 SW15      29.83F
LIMA           MOSUNNY   76  56  49 W14       29.88R

$$
AND FOR LAKE MICHIGAN COASTAL AND OPEN LAKE BUOY OBSERVATIONS

STATION/POSITION TEMP    WIND        PRES    VSBY  WAVE
                 AIR SEA DIR/SP/G                  HT/PER
                 (F)     (DEG/KT/KT) (MB)    (MI)  (FT/S)
CALUMET HARBOR    74     220/ 11/ 18 1009.7R
MICHIGAN CITY     65     240/ 13/ 15   N/A
BURNS HARBOR      67     260/ 12/ 15 1010.8S
SOUTH LAKE BUOY   52 47  230/ 10/ 10 1008.6          1
4 MI NW BRIDGMAN  62 59  250/ 10/ 12 1010.3          1/ 3
MICHIGAN CITY     62 56  250/  8/ 10   N/A           1

$$
&&




USA.gov is the U.S. government's official web portal to all federal, state and local government web resources and services.